Time,TemperatureF,DewpointF,PressureIn,WindDirection,WindDirectionDegrees,WindSpeedMPH,WindSpeedGustMPH,Humidity,HourlyPrecipIn,Conditions,Clouds,dailyrainin,SoftwareType,DateUTC
2013-01-15 00:01:00,25.2,19.3,30.41,SW,225,0.0,0.0,78,0.00,,---,0.00,VWS V14.01,2013-01-15 08:01:00,
2013-01-15 00:06:00,25.2,19.3,30.39,WSW,248,0.0,0.0,78,0.00,,---,0.00,VWS V14.01,2013-01-15 08:06:00,
2013-01-15 00:11:00,25.0,19.1,30.39,WNW,292,0.0,0.0,78,0.00,,---,0.00,VWS V14.01,2013-01-15 08:11:00,
2013-01-15 00:16:00,24.8,18.9,30.39,West,270,0.0,0.0,78,0.00,,---,0.00,VWS V14.01,2013-01-15 08:16:00,
2013-01-15 00:21:00,24.4,18.6,30.39,West,270,0.0,0.0,78,0.00,,---,0.00,VWS V14.01,2013-01-15 08:21:00,
2013-01-15 00:26:00,24.1,18.2,30.39,West,270,0.0,0.0,78,0.00,,---,0.00,VWS V14.01,2013-01-15 08:26:00,
2013-01-15 00:31:00,23.5,17.7,30.39,NNW,338,0.0,0.0,78,0.00,,---,0.00,VWS V14.01,2013-01-15 08:31:00,
2013-01-15 00:36:00,23.2,17.4,30.39,NNW,338,0.0,0.0,78,0.00,,---,0.00,VWS V14.01,2013-01-15 08:36:00,
2013-01-15 00:41:00,22.8,17.3,30.39,NNW,338,0.0,0.0,79,0.00,,---,0.00,VWS V14.01,2013-01-15 08:41:00,
2013-01-15 00:46:00,22.6,17.1,30.39,NW,315,0.0,0.0,79,0.00,,---,0.00,VWS V14.01,2013-01-15 08:46:00,
2013-01-15 00:52:00,22.8,17.6,30.41,WSW,248,0.0,0.0,80,0.00,,---,0.00,VWS V14.01,2013-01-15 08:52:00,
2013-01-15 00:57:00,22.5,17.2,30.41,WSW,248,0.0,0.0,80,0.00,,---,0.00,VWS V14.01,2013-01-15 08:57:00,
2013-01-15 01:02:00,22.3,17.1,30.39,WSW,248,0.0,0.0,80,0.00,,---,0.00,VWS V14.01,2013-01-15 09:02:00,
2013-01-15 01:07:00,22.1,16.9,30.39,WSW,248,0.0,0.0,80,0.00,,---,0.00,VWS V14.01,2013-01-15 09:07:00,
2013-01-15 01:12:00,21.9,16.7,30.39,WSW,248,0.0,0.0,80,0.00,,---,0.00,VWS V14.01,2013-01-15 09:12:00,
2013-01-15 01:17:00,21.7,16.5,30.39,WSW,248,0.0,0.0,80,0.00,,---,0.00,VWS V14.01,2013-01-15 09:17:00,
2013-01-15 01:22:00,21.6,16.6,30.41,South,180,0.0,0.0,81,0.00,,---,0.00,VWS V14.01,2013-01-15 09:22:00,
2013-01-15 01:27:00,21.6,16.9,30.41,SSW,202,1.1,1.1,82,0.00,,---,0.00,VWS V14.01,2013-01-15 09:27:00,
2013-01-15 01:32:00,21.4,16.8,30.41,SSW,202,0.0,0.0,82,0.00,,---,0.00,VWS V14.01,2013-01-15 09:32:00,
2013-01-15 01:37:00,21.2,16.6,30.41,SW,225,0.0,0.0,82,0.00,,---,0.00,VWS V14.01,2013-01-15 09:37:00,
2013-01-15 01:42:00,20.8,16.2,30.41,SW,225,0.0,0.0,82,0.00,,---,0.00,VWS V14.01,2013-01-15 09:42:00,
2013-01-15 01:48:00,20.7,16.0,30.41,South,180,1.6,1.6,82,0.00,,---,0.00,VWS V14.01,2013-01-15 09:48:00,
2013-01-15 01:53:00,20.8,17.0,30.41,South,180,2.9,2.9,85,0.00,,---,0.00,VWS V14.01,2013-01-15 09:53:00,
2013-01-15 01:58:00,20.8,17.0,30.41,South,180,0.0,0.0,85,0.00,,---,0.00,VWS V14.01,2013-01-15 09:58:00,
2013-01-15 02:03:00,20.7,16.9,30.41,SSW,202,0.0,0.0,85,0.00,,---,0.00,VWS V14.01,2013-01-15 10:03:00,
2013-01-15 02:08:00,20.5,16.4,30.41,SSW,202,0.0,0.0,84,0.00,,---,0.00,VWS V14.01,2013-01-15 10:08:00,
2013-01-15 02:13:00,20.3,16.5,30.41,South,180,2.7,2.7,85,0.00,,---,0.00,VWS V14.01,2013-01-15 10:13:00,
2013-01-15 02:18:00,20.1,16.1,30.44,South,180,2.5,2.5,84,0.00,,---,0.00,VWS V14.01,2013-01-15 10:18:00,
2013-01-15 02:23:00,20.1,16.3,30.44,SSW,202,0.0,0.0,85,0.00,,---,0.00,VWS V14.01,2013-01-15 10:23:00,
2013-01-15 02:28:00,20.1,16.1,30.44,SW,225,2.7,2.7,84,0.00,,---,0.00,VWS V14.01,2013-01-15 10:28:00,
2013-01-15 02:33:00,19.9,16.2,30.41,SW,225,0.0,0.0,85,0.00,,---,0.00,VWS V14.01,2013-01-15 10:33:00,
2013-01-15 02:38:00,19.6,15.5,30.41,SW,225,0.0,0.0,84,0.00,,---,0.00,VWS V14.01,2013-01-15 10:38:00,
2013-01-15 02:43:00,19.4,15.4,30.41,SW,225,0.0,0.0,84,0.00,,---,0.00,VWS V14.01,2013-01-15 10:43:00,
2013-01-15 02:48:00,19.0,15.0,30.41,SSW,202,0.0,0.0,84,0.00,,---,0.00,VWS V14.01,2013-01-15 10:48:00,
2013-01-15 02:54:00,19.2,15.7,30.41,South,180,3.8,3.8,86,0.00,,---,0.00,VWS V14.01,2013-01-15 10:54:00,
2013-01-15 02:59:00,19.2,16.0,30.41,South,180,2.9,2.9,87,0.00,,---,0.00,VWS V14.01,2013-01-15 10:59:00,
2013-01-15 03:04:00,19.0,15.8,30.41,SSW,202,0.0,0.0,87,0.00,,---,0.00,VWS V14.01,2013-01-15 11:04:00,
2013-01-15 03:09:00,18.7,15.2,30.41,SSW,202,0.0,0.0,86,0.00,,---,0.00,VWS V14.01,2013-01-15 11:09:00,
2013-01-15 03:14:00,18.7,14.9,30.41,South,180,2.0,2.0,85,0.00,,---,0.00,VWS V14.01,2013-01-15 11:14:00,
2013-01-15 03:19:00,18.9,15.6,30.44,South,180,3.4,3.4,87,0.00,,---,0.00,VWS V14.01,2013-01-15 11:19:00,
2013-01-15 03:24:00,19.0,15.8,30.44,South,180,2.2,2.2,87,0.00,,---,0.00,VWS V14.01,2013-01-15 11:24:00,
2013-01-15 03:29:00,18.9,15.6,30.44,SSW,202,0.0,0.0,87,0.00,,---,0.00,VWS V14.01,2013-01-15 11:29:00,
2013-01-15 03:34:00,18.5,15.0,30.41,SSW,202,0.0,0.0,86,0.00,,---,0.00,VWS V14.01,2013-01-15 11:34:00,
2013-01-15 03:39:00,18.3,14.6,30.41,SW,225,2.2,2.2,85,0.00,,---,0.00,VWS V14.01,2013-01-15 11:39:00,
2013-01-15 03:44:00,18.3,14.6,30.41,SSW,202,0.0,0.0,85,0.00,,---,0.00,VWS V14.01,2013-01-15 11:44:00,
2013-01-15 03:49:00,18.3,14.8,30.44,SSW,202,1.3,1.3,86,0.00,,---,0.00,VWS V14.01,2013-01-15 11:49:00,
2013-01-15 03:55:00,18.1,14.4,30.44,SSW,202,0.0,0.0,85,0.00,,---,0.00,VWS V14.01,2013-01-15 11:55:00,
2013-01-15 04:00:00,18.1,14.4,30.44,South,180,0.0,0.0,85,0.00,,---,0.00,VWS V14.01,2013-01-15 12:00:00,
2013-01-15 04:05:00,18.0,14.2,30.44,South,180,0.0,0.0,85,0.00,,---,0.00,VWS V14.01,2013-01-15 12:05:00,
2013-01-15 04:10:00,18.0,14.2,30.44,SW,225,0.0,0.0,85,0.00,,---,0.00,VWS V14.01,2013-01-15 12:10:00,
2013-01-15 04:15:00,17.8,14.0,30.44,SSW,202,0.0,0.0,85,0.00,,---,0.00,VWS V14.01,2013-01-15 12:15:00,
2013-01-15 04:20:00,17.8,14.0,30.44,SSW,202,0.0,0.0,85,0.00,,---,0.00,VWS V14.01,2013-01-15 12:20:00,
2013-01-15 04:25:00,17.8,14.0,30.44,South,180,1.6,1.6,85,0.00,,---,0.00,VWS V14.01,2013-01-15 12:25:00,
2013-01-15 04:30:00,17.8,14.3,30.44,South,180,2.7,2.7,86,0.00,,---,0.00,VWS V14.01,2013-01-15 12:30:00,
2013-01-15 04:35:00,17.6,14.1,30.41,SSE,158,0.0,0.0,86,0.00,,---,0.00,VWS V14.01,2013-01-15 12:35:00,
2013-01-15 04:40:00,17.6,14.1,30.41,South,180,0.0,0.0,86,0.00,,---,0.00,VWS V14.01,2013-01-15 12:40:00,
2013-01-15 04:45:00,17.4,14.0,30.41,South,180,0.0,0.0,86,0.00,,---,0.00,VWS V14.01,2013-01-15 12:45:00,
2013-01-15 04:50:00,17.6,14.1,30.41,South,180,2.5,2.5,86,0.00,,---,0.00,VWS V14.01,2013-01-15 12:50:00,
2013-01-15 04:55:00,17.4,14.2,30.41,SSW,202,0.0,0.0,87,0.00,,---,0.00,VWS V14.01,2013-01-15 12:55:00,
2013-01-15 05:01:00,17.2,13.8,30.41,SSW,202,0.0,0.0,86,0.00,,---,0.00,VWS V14.01,2013-01-15 13:01:00,
2013-01-15 05:06:00,17.4,14.0,30.41,SSW,202,0.0,0.0,86,0.00,,---,0.00,VWS V14.01,2013-01-15 13:06:00,
2013-01-15 05:11:00,17.4,14.0,30.41,SW,225,0.0,0.0,86,0.00,,---,0.00,VWS V14.01,2013-01-15 13:11:00,
2013-01-15 05:16:00,17.6,14.1,30.41,SW,225,0.0,0.0,86,0.00,,---,0.00,VWS V14.01,2013-01-15 13:16:00,
2013-01-15 05:21:00,17.6,14.1,30.41,SW,225,0.0,0.0,86,0.00,,---,0.00,VWS V14.01,2013-01-15 13:21:00,
2013-01-15 05:26:00,17.6,14.1,30.41,SSW,202,0.0,0.0,86,0.00,,---,0.00,VWS V14.01,2013-01-15 13:26:00,
2013-01-15 05:31:00,17.4,14.0,30.41,SSW,202,0.0,0.0,86,0.00,,---,0.00,VWS V14.01,2013-01-15 13:31:00,
2013-01-15 05:36:00,17.6,14.1,30.41,SSW,202,0.0,0.0,86,0.00,,---,0.00,VWS V14.01,2013-01-15 13:36:00,
2013-01-15 05:41:00,17.4,14.0,30.41,South,180,2.7,2.7,86,0.00,,---,0.00,VWS V14.01,2013-01-15 13:41:00,
2013-01-15 05:46:00,17.6,14.1,30.41,SSE,158,1.6,1.6,86,0.00,,---,0.00,VWS V14.01,2013-01-15 13:46:00,
2013-01-15 05:51:00,17.4,14.0,30.41,South,180,0.0,0.0,86,0.00,,---,0.00,VWS V14.01,2013-01-15 13:51:00,
2013-01-15 05:56:00,17.4,14.0,30.41,SSW,202,0.0,0.0,86,0.00,,---,0.00,VWS V14.01,2013-01-15 13:56:00,
2013-01-15 06:02:00,17.6,14.1,30.41,SSW,202,0.0,0.0,86,0.00,,---,0.00,VWS V14.01,2013-01-15 14:02:00,
2013-01-15 06:07:00,17.8,14.3,30.41,South,180,0.0,0.0,86,0.00,,---,0.00,VWS V14.01,2013-01-15 14:07:00,
2013-01-15 06:12:00,17.8,14.3,30.41,WSW,248,0.0,0.0,86,0.00,,---,0.00,VWS V14.01,2013-01-15 14:12:00,
2013-01-15 06:17:00,18.0,14.5,30.41,SW,225,0.0,0.0,86,0.00,,---,0.00,VWS V14.01,2013-01-15 14:17:00,
2013-01-15 06:22:00,18.3,15.1,30.41,SW,225,0.0,0.0,87,0.00,,---,0.00,VWS V14.01,2013-01-15 14:22:00,
2013-01-15 06:27:00,18.5,15.3,30.41,SSW,202,0.0,0.0,87,0.00,,---,0.00,VWS V14.01,2013-01-15 14:27:00,
2013-01-15 06:32:00,18.7,15.5,30.41,SSW,202,2.2,2.2,87,0.00,,---,0.00,VWS V14.01,2013-01-15 14:32:00,
2013-01-15 06:37:00,18.9,15.6,30.41,South,180,0.0,0.0,87,0.00,,---,0.00,VWS V14.01,2013-01-15 14:37:00,
2013-01-15 06:42:00,19.0,15.8,30.41,SSW,202,0.0,0.0,87,0.00,,---,0.00,VWS V14.01,2013-01-15 14:42:00,
2013-01-15 06:47:00,19.2,16.0,30.41,SSW,202,0.0,0.0,87,0.00,,---,0.00,VWS V14.01,2013-01-15 14:47:00,
2013-01-15 06:52:00,19.6,16.4,30.41,SSW,202,0.0,0.0,87,0.00,,---,0.00,VWS V14.01,2013-01-15 14:52:00,
2013-01-15 06:57:00,19.8,16.5,30.41,SSW,202,0.0,0.0,87,0.00,,---,0.00,VWS V14.01,2013-01-15 14:57:00,
2013-01-15 07:02:00,19.8,16.5,30.41,SSW,202,0.0,0.0,87,0.00,,---,0.00,VWS V14.01,2013-01-15 15:02:00,
2013-01-15 07:07:00,20.1,16.9,30.41,South,180,1.6,1.6,87,0.00,,---,0.00,VWS V14.01,2013-01-15 15:07:00,
2013-01-15 07:13:00,20.3,17.3,30.41,SE,135,0.0,0.0,88,0.00,,---,0.00,VWS V14.01,2013-01-15 15:13:00,
2013-01-15 07:18:00,20.3,17.3,30.41,SE,135,0.0,0.0,88,0.00,,---,0.00,VWS V14.01,2013-01-15 15:18:00,
2013-01-15 07:23:00,20.5,17.2,30.41,SE,135,0.0,0.0,87,0.00,,---,0.00,VWS V14.01,2013-01-15 15:23:00,
2013-01-15 07:28:00,20.7,17.4,30.41,SSE,158,0.0,0.0,87,0.00,,---,0.00,VWS V14.01,2013-01-15 15:28:00,
2013-01-15 07:33:00,20.7,17.7,30.41,SSE,158,0.0,0.0,88,0.00,,---,0.00,VWS V14.01,2013-01-15 15:33:00,
2013-01-15 07:38:00,21.0,18.0,30.41,SSE,158,0.0,0.0,88,0.00,,---,0.00,VWS V14.01,2013-01-15 15:38:00,
2013-01-15 07:43:00,21.0,18.0,30.41,South,180,0.0,0.0,88,0.00,,---,0.00,VWS V14.01,2013-01-15 15:43:00,
2013-01-15 07:48:00,21.2,18.2,30.44,South,180,0.0,0.0,88,0.00,,---,0.00,VWS V14.01,2013-01-15 15:48:00,
2013-01-15 07:53:00,21.4,18.1,30.44,SSW,202,0.0,0.0,87,0.00,,---,0.00,VWS V14.01,2013-01-15 15:53:00,
2013-01-15 07:58:00,21.7,18.7,30.44,South,180,0.0,0.0,88,0.00,,---,0.00,VWS V14.01,2013-01-15 15:58:00,
2013-01-15 08:03:00,21.9,18.9,30.44,South,180,0.0,0.0,88,0.00,,---,0.00,VWS V14.01,2013-01-15 16:03:00,
2013-01-15 08:08:00,22.3,19.3,30.44,South,180,0.0,0.0,88,0.00,,---,0.00,VWS V14.01,2013-01-15 16:08:00,
2013-01-15 08:14:00,22.5,19.5,30.44,South,180,0.0,0.0,88,0.00,,---,0.00,VWS V14.01,2013-01-15 16:14:00,
2013-01-15 08:19:00,22.8,19.5,30.44,SSE,158,0.0,0.0,87,0.00,,---,0.00,VWS V14.01,2013-01-15 16:19:00,
2013-01-15 08:24:00,23.0,19.7,30.44,SW,225,0.0,0.0,87,0.00,,---,0.00,VWS V14.01,2013-01-15 16:24:00,
2013-01-15 08:29:00,23.4,20.1,30.44,SW,225,0.0,0.0,87,0.00,,---,0.00,VWS V14.01,2013-01-15 16:29:00,
2013-01-15 08:34:00,23.5,20.2,30.44,SW,225,0.0,0.0,87,0.00,,---,0.00,VWS V14.01,2013-01-15 16:34:00,
2013-01-15 08:39:00,23.9,20.3,30.44,SW,225,0.0,0.0,86,0.00,,---,0.00,VWS V14.01,2013-01-15 16:39:00,
2013-01-15 08:44:00,24.3,20.7,30.44,WSW,248,0.0,0.0,86,0.00,,---,0.00,VWS V14.01,2013-01-15 16:44:00,
2013-01-15 08:49:00,24.4,20.9,30.44,SW,225,0.0,0.0,86,0.00,,---,0.00,VWS V14.01,2013-01-15 16:49:00,
2013-01-15 08:54:00,24.6,21.0,30.44,SW,225,0.0,0.0,86,0.00,,---,0.00,VWS V14.01,2013-01-15 16:54:00,
2013-01-15 08:59:00,25.0,20.8,30.44,WSW,248,0.9,0.9,84,0.00,,---,0.00,VWS V14.01,2013-01-15 16:59:00,
2013-01-15 09:04:00,25.5,21.4,30.47,WSW,248,0.0,0.0,84,0.00,,---,0.00,VWS V14.01,2013-01-15 17:04:00,
2013-01-15 09:09:00,25.7,21.5,30.47,WNW,292,0.0,0.0,84,0.00,,---,0.00,VWS V14.01,2013-01-15 17:09:00,
2013-01-15 09:14:00,26.1,21.6,30.47,NW,315,0.0,0.0,83,0.00,,---,0.00,VWS V14.01,2013-01-15 17:14:00,
2013-01-15 09:19:00,26.1,21.6,30.47,West,270,1.3,1.3,83,0.00,,---,0.00,VWS V14.01,2013-01-15 17:19:00,
2013-01-15 09:24:00,26.4,21.7,30.47,NW,315,0.0,0.0,82,0.00,,---,0.00,VWS V14.01,2013-01-15 17:24:00,
2013-01-15 09:30:00,26.8,21.7,30.47,NW,315,1.6,1.6,81,0.00,,---,0.00,VWS V14.01,2013-01-15 17:30:00,
2013-01-15 09:35:00,27.0,21.6,30.47,WNW,292,0.0,0.0,80,0.00,,---,0.00,VWS V14.01,2013-01-15 17:35:00,
2013-01-15 09:40:00,28.0,22.7,30.47,WNW,292,1.6,1.6,80,0.00,,---,0.00,VWS V14.01,2013-01-15 17:40:00,
2013-01-15 09:45:00,28.4,22.7,30.47,NNW,338,2.0,2.0,79,0.00,,---,0.00,VWS V14.01,2013-01-15 17:45:00,
2013-01-15 09:50:00,28.6,22.3,30.47,NW,315,2.0,2.0,77,0.00,,---,0.00,VWS V14.01,2013-01-15 17:50:00,
2013-01-15 09:55:00,28.6,22.3,30.47,WNW,292,2.2,2.2,77,0.00,,---,0.00,VWS V14.01,2013-01-15 17:55:00,
2013-01-15 10:00:00,28.8,22.2,30.47,NNW,338,1.6,1.6,76,0.00,,---,0.00,VWS V14.01,2013-01-15 18:00:00,
2013-01-15 10:05:00,28.9,21.7,30.47,NNW,338,0.0,0.0,74,0.00,,---,0.00,VWS V14.01,2013-01-15 18:05:00,
2013-01-15 10:10:00,28.8,21.5,30.47,WNW,292,1.1,1.1,74,0.00,,---,0.00,VWS V14.01,2013-01-15 18:10:00,
2013-01-15 10:15:00,28.8,21.2,30.47,WNW,292,2.5,2.5,73,0.00,,---,0.00,VWS V14.01,2013-01-15 18:15:00,
2013-01-15 10:20:00,28.8,20.9,30.47,WSW,248,0.0,0.0,72,0.00,,---,0.00,VWS V14.01,2013-01-15 18:20:00,
2013-01-15 10:26:00,28.6,20.4,30.47,WNW,292,2.2,2.2,71,0.00,,---,0.00,VWS V14.01,2013-01-15 18:26:00,
2013-01-15 10:31:00,28.9,20.7,30.47,WNW,292,0.0,0.0,71,0.00,,---,0.00,VWS V14.01,2013-01-15 18:31:00,
2013-01-15 10:36:00,29.1,20.6,30.50,West,270,2.0,2.0,70,0.00,,---,0.00,VWS V14.01,2013-01-15 18:36:00,
2013-01-15 10:41:00,29.7,21.1,30.50,WNW,292,2.0,2.0,70,0.00,,---,0.00,VWS V14.01,2013-01-15 18:41:00,
2013-01-15 10:46:00,30.4,21.4,30.50,NNW,338,1.3,1.3,69,0.00,,---,0.00,VWS V14.01,2013-01-15 18:46:00,
2013-01-15 10:51:00,31.3,22.3,30.47,North,0,0.0,0.0,69,0.00,,---,0.00,VWS V14.01,2013-01-15 18:51:00,
2013-01-15 10:56:00,32.0,22.6,30.47,NW,315,2.5,2.5,68,0.00,,---,0.00,VWS V14.01,2013-01-15 18:56:00,
2013-01-15 11:01:00,31.6,20.5,30.47,NNW,338,2.5,2.5,63,0.00,,---,0.00,VWS V14.01,2013-01-15 19:01:00,
2013-01-15 11:06:00,31.6,20.5,30.47,NW,315,2.5,2.5,63,0.00,,---,0.00,VWS V14.01,2013-01-15 19:06:00,
2013-01-15 11:11:00,31.5,20.0,30.47,WNW,292,0.0,0.0,62,0.00,,---,0.00,VWS V14.01,2013-01-15 19:11:00,
2013-01-15 11:16:00,31.1,19.2,30.47,NW,315,2.2,2.2,61,0.00,,---,0.00,VWS V14.01,2013-01-15 19:16:00,
2013-01-15 11:21:00,30.9,19.1,30.47,NW,315,2.5,2.5,61,0.00,,---,0.00,VWS V14.01,2013-01-15 19:21:00,
2013-01-15 11:26:00,30.4,18.6,30.47,NNW,338,2.7,2.7,61,0.00,,---,0.00,VWS V14.01,2013-01-15 19:26:00,
2013-01-15 11:31:00,30.6,19.5,30.47,WNW,292,0.0,0.0,63,0.00,,---,0.00,VWS V14.01,2013-01-15 19:31:00,
2013-01-15 11:37:00,30.2,18.8,30.47,WSW,248,0.0,0.0,62,0.00,,---,0.00,VWS V14.01,2013-01-15 19:37:00,
2013-01-15 11:42:00,30.4,18.9,30.47,NNW,338,0.0,0.0,62,0.00,,---,0.00,VWS V14.01,2013-01-15 19:42:00,
2013-01-15 11:47:00,30.7,20.0,30.50,WSW,248,1.3,1.3,64,0.00,,---,0.00,VWS V14.01,2013-01-15 19:47:00,
2013-01-15 11:52:00,30.9,20.2,30.50,NW,315,0.0,0.0,64,0.00,,---,0.00,VWS V14.01,2013-01-15 19:52:00,
2013-01-15 11:57:00,31.1,20.4,30.50,West,270,2.0,2.0,64,0.00,,---,0.00,VWS V14.01,2013-01-15 19:57:00,
2013-01-15 12:02:00,30.9,19.8,30.47,WNW,292,0.0,0.0,63,0.00,,---,0.00,VWS V14.01,2013-01-15 20:02:00,
2013-01-15 12:07:00,30.9,20.2,30.47,West,270,0.0,0.0,64,0.00,,---,0.00,VWS V14.01,2013-01-15 20:07:00,
2013-01-15 12:12:00,31.3,20.5,30.47,WNW,292,0.0,0.0,64,0.00,,---,0.00,VWS V14.01,2013-01-15 20:12:00,
2013-01-15 12:17:00,31.1,20.4,30.47,WNW,292,0.0,0.0,64,0.00,,---,0.00,VWS V14.01,2013-01-15 20:17:00,
2013-01-15 12:22:00,31.1,20.4,30.47,WNW,292,0.9,0.9,64,0.00,,---,0.00,VWS V14.01,2013-01-15 20:22:00,
2013-01-15 12:28:00,31.3,20.5,30.47,West,270,0.9,0.9,64,0.00,,---,0.00,VWS V14.01,2013-01-15 20:28:00,
2013-01-15 12:33:00,31.5,20.7,30.47,NW,315,2.7,2.7,64,0.00,,---,0.00,VWS V14.01,2013-01-15 20:33:00,
2013-01-15 12:38:00,31.5,20.7,30.47,NNW,338,0.0,0.0,64,0.00,,---,0.00,VWS V14.01,2013-01-15 20:38:00,
2013-01-15 12:43:00,31.5,20.7,30.47,NNE,22,0.0,0.0,64,0.00,,---,0.00,VWS V14.01,2013-01-15 20:43:00,
2013-01-15 12:48:00,31.5,21.1,30.47,NW,315,2.5,2.5,65,0.00,,---,0.00,VWS V14.01,2013-01-15 20:48:00,
2013-01-15 12:53:00,31.8,21.4,30.47,NW,315,1.3,1.3,65,0.00,,---,0.00,VWS V14.01,2013-01-15 20:53:00,
2013-01-15 12:58:00,31.8,21.4,30.47,WNW,292,0.0,0.0,65,0.00,,---,0.00,VWS V14.01,2013-01-15 20:58:00,
2013-01-15 13:03:00,31.8,21.4,30.47,NW,315,0.0,0.0,65,0.00,,---,0.00,VWS V14.01,2013-01-15 21:03:00,
2013-01-15 13:08:00,32.2,21.8,30.47,NNW,338,0.0,0.0,65,0.00,,---,0.00,VWS V14.01,2013-01-15 21:08:00,
2013-01-15 13:13:00,32.2,21.8,30.47,NNW,338,0.0,0.0,65,0.00,,---,0.00,VWS V14.01,2013-01-15 21:13:00,
2013-01-15 13:18:00,32.4,22.3,30.47,West,270,0.0,0.0,66,0.00,,---,0.00,VWS V14.01,2013-01-15 21:18:00,
2013-01-15 13:24:00,32.2,21.8,30.47,WNW,292,0.0,0.0,65,0.00,,---,0.00,VWS V14.01,2013-01-15 21:24:00,
2013-01-15 13:29:00,32.5,22.5,30.47,NNW,338,0.0,0.0,66,0.00,,---,0.00,VWS V14.01,2013-01-15 21:29:00,
2013-01-15 13:34:00,32.7,22.3,30.47,ENE,68,1.1,1.1,65,0.00,,---,0.00,VWS V14.01,2013-01-15 21:34:00,
2013-01-15 13:39:00,32.9,22.8,30.47,NNW,338,2.2,2.2,66,0.00,,---,0.00,VWS V14.01,2013-01-15 21:39:00,
2013-01-15 13:44:00,32.9,23.2,30.47,SW,225,2.2,2.2,67,0.00,,---,0.00,VWS V14.01,2013-01-15 21:44:00,
2013-01-15 13:49:00,33.1,23.7,30.47,WSW,248,0.0,0.0,68,0.00,,---,0.00,VWS V14.01,2013-01-15 21:49:00,
2013-01-15 13:54:00,33.3,24.2,30.47,West,270,3.1,3.1,69,0.00,,---,0.00,VWS V14.01,2013-01-15 21:54:00,
2013-01-15 13:59:00,33.1,24.4,30.47,SSW,202,2.5,2.5,70,0.00,,---,0.00,VWS V14.01,2013-01-15 21:59:00,
2013-01-15 14:04:00,33.3,24.5,30.47,WSW,248,1.3,1.3,70,0.00,,---,0.00,VWS V14.01,2013-01-15 22:04:00,
2013-01-15 14:09:00,33.6,24.9,30.47,West,270,2.9,2.9,70,0.00,,---,0.00,VWS V14.01,2013-01-15 22:09:00,
2013-01-15 14:14:00,33.4,24.4,30.47,South,180,0.0,0.0,69,0.00,,---,0.00,VWS V14.01,2013-01-15 22:14:00,
2013-01-15 14:19:00,33.4,24.4,30.47,West,270,0.0,0.0,69,0.00,,---,0.00,VWS V14.01,2013-01-15 22:19:00,
2013-01-15 14:24:00,33.3,24.2,30.47,West,270,0.0,0.0,69,0.00,,---,0.00,VWS V14.01,2013-01-15 22:24:00,
2013-01-15 14:30:00,33.1,24.0,30.47,West,270,1.3,1.3,69,0.00,,---,0.00,VWS V14.01,2013-01-15 22:30:00,
2013-01-15 14:35:00,33.3,24.5,30.47,WNW,292,1.3,1.3,70,0.00,,---,0.00,VWS V14.01,2013-01-15 22:35:00,
2013-01-15 14:40:00,33.3,24.5,30.47,SW,225,0.0,0.0,70,0.00,,---,0.00,VWS V14.01,2013-01-15 22:40:00,
2013-01-15 14:45:00,33.3,24.9,30.47,SW,225,1.1,1.1,71,0.00,,---,0.00,VWS V14.01,2013-01-15 22:45:00,
2013-01-15 14:50:00,33.1,24.7,30.50,South,180,1.6,1.6,71,0.00,,---,0.00,VWS V14.01,2013-01-15 22:50:00,
2013-01-15 14:55:00,33.1,24.7,30.50,West,270,2.5,2.5,71,0.00,,---,0.00,VWS V14.01,2013-01-15 22:55:00,
2013-01-15 15:00:00,32.9,24.2,30.50,WSW,248,0.0,0.0,70,0.00,,---,0.00,VWS V14.01,2013-01-15 23:00:00,
2013-01-15 15:05:00,32.9,24.5,30.47,NNW,338,1.3,1.3,71,0.00,,---,0.00,VWS V14.01,2013-01-15 23:05:00,
2013-01-15 15:10:00,32.7,24.0,30.47,West,270,2.5,2.5,70,0.00,,---,0.00,VWS V14.01,2013-01-15 23:10:00,
2013-01-15 15:15:00,32.5,24.2,30.47,WSW,248,0.0,0.0,71,0.00,,---,0.00,VWS V14.01,2013-01-15 23:15:00,
2013-01-15 15:20:00,32.4,24.0,30.50,SE,135,2.5,2.5,71,0.00,,---,0.00,VWS V14.01,2013-01-15 23:20:00,
2013-01-15 15:25:00,32.0,23.7,30.50,SW,225,3.6,3.6,71,0.00,,---,0.00,VWS V14.01,2013-01-15 23:25:00,
2013-01-15 15:31:00,31.6,23.7,30.50,WSW,248,2.5,2.5,72,0.00,,---,0.00,VWS V14.01,2013-01-15 23:31:00,
2013-01-15 15:36:00,31.6,23.7,30.47,WSW,248,2.5,2.5,72,0.00,,---,0.00,VWS V14.01,2013-01-15 23:36:00,
2013-01-15 15:41:00,31.6,24.0,30.47,WSW,248,0.0,0.0,73,0.00,,---,0.00,VWS V14.01,2013-01-15 23:41:00,
2013-01-15 15:46:00,31.8,24.2,30.47,WSW,248,0.0,0.0,73,0.00,,---,0.00,VWS V14.01,2013-01-15 23:46:00,
2013-01-15 15:51:00,31.8,24.5,30.50,SSW,202,1.1,1.1,74,0.00,,---,0.00,VWS V14.01,2013-01-15 23:51:00,
2013-01-15 15:56:00,31.8,24.5,30.50,West,270,2.0,2.0,74,0.00,,---,0.00,VWS V14.01,2013-01-15 23:56:00,
2013-01-15 16:01:00,31.8,24.5,30.50,WNW,292,0.0,0.0,74,0.00,,---,0.00,VWS V14.01,2013-01-16 00:01:00,
2013-01-15 16:06:00,31.6,24.3,30.50,SSW,202,0.0,0.0,74,0.00,,---,0.00,VWS V14.01,2013-01-16 00:06:00,
2013-01-15 16:11:00,31.6,24.3,30.50,East,90,2.0,2.0,74,0.00,,---,0.00,VWS V14.01,2013-01-16 00:11:00,
2013-01-15 16:16:00,31.6,24.6,30.50,SSW,202,0.0,0.0,75,0.00,,---,0.00,VWS V14.01,2013-01-16 00:16:00,
2013-01-15 16:21:00,31.5,24.5,30.47,SSW,202,0.0,0.0,75,0.00,,---,0.00,VWS V14.01,2013-01-16 00:21:00,
2013-01-15 16:27:00,31.5,24.5,30.47,South,180,0.0,0.0,75,0.00,,---,0.00,VWS V14.01,2013-01-16 00:27:00,
2013-01-15 16:32:00,31.3,24.3,30.47,South,180,0.0,0.0,75,0.00,,---,0.00,VWS V14.01,2013-01-16 00:32:00,
2013-01-15 16:37:00,31.3,24.3,30.47,NE,45,0.0,0.0,75,0.00,,---,0.00,VWS V14.01,2013-01-16 00:37:00,
2013-01-15 16:42:00,31.3,24.3,30.47,ENE,68,0.0,0.0,75,0.00,,---,0.00,VWS V14.01,2013-01-16 00:42:00,
2013-01-15 16:47:00,31.1,24.1,30.47,NW,315,0.0,0.0,75,0.00,,---,0.00,VWS V14.01,2013-01-16 00:47:00,
2013-01-15 16:52:00,31.1,24.4,30.47,NW,315,0.0,0.0,76,0.00,,---,0.00,VWS V14.01,2013-01-16 00:52:00,
2013-01-15 16:57:00,31.1,24.4,30.47,NW,315,0.0,0.0,76,0.00,,---,0.00,VWS V14.01,2013-01-16 00:57:00,
2013-01-15 17:02:00,31.1,24.4,30.47,SSE,158,0.0,0.0,76,0.00,,---,0.00,VWS V14.01,2013-01-16 01:02:00,
2013-01-15 17:07:00,31.3,24.9,30.47,SSW,202,0.0,0.0,77,0.00,,---,0.00,VWS V14.01,2013-01-16 01:07:00,
2013-01-15 17:12:00,31.3,24.9,30.47,South,180,0.0,0.0,77,0.00,,---,0.00,VWS V14.01,2013-01-16 01:12:00,
2013-01-15 17:17:00,31.1,24.8,30.50,ENE,68,0.0,0.0,77,0.00,,---,0.00,VWS V14.01,2013-01-16 01:17:00,
2013-01-15 17:22:00,31.1,24.8,30.50,ENE,68,0.0,0.0,77,0.00,,---,0.00,VWS V14.01,2013-01-16 01:22:00,
2013-01-15 17:27:00,31.1,24.8,30.50,ESE,112,0.0,0.0,77,0.00,,---,0.00,VWS V14.01,2013-01-16 01:27:00,
2013-01-15 17:33:00,31.1,25.0,30.50,East,90,0.0,0.0,78,0.00,,---,0.00,VWS V14.01,2013-01-16 01:33:00,
2013-01-15 17:38:00,31.1,25.0,30.50,ESE,112,0.0,0.0,78,0.00,,---,0.00,VWS V14.01,2013-01-16 01:38:00,
2013-01-15 17:43:00,31.1,25.0,30.50,SE,135,0.0,0.0,78,0.00,,---,0.00,VWS V14.01,2013-01-16 01:43:00,
2013-01-15 17:48:00,31.1,25.0,30.50,North,0,2.2,2.2,78,0.00,,---,0.00,VWS V14.01,2013-01-16 01:48:00,
2013-01-15 17:53:00,31.3,25.2,30.50,East,90,0.9,0.9,78,0.00,,---,0.00,VWS V14.01,2013-01-16 01:53:00,
2013-01-15 17:58:00,31.3,25.5,30.50,ENE,68,0.0,0.0,79,0.00,,---,0.00,VWS V14.01,2013-01-16 01:58:00,
2013-01-15 18:03:00,31.3,25.2,30.50,SW,225,0.0,0.0,78,0.00,,---,0.00,VWS V14.01,2013-01-16 02:03:00,
2013-01-15 18:08:00,31.3,25.2,30.50,SSW,202,0.0,0.0,78,0.00,,---,0.00,VWS V14.01,2013-01-16 02:08:00,
2013-01-15 18:13:00,31.3,25.5,30.50,South,180,0.0,0.0,79,0.00,,---,0.00,VWS V14.01,2013-01-16 02:13:00,
2013-01-15 18:18:00,31.1,25.4,30.50,South,180,0.0,0.0,79,0.00,,---,0.00,VWS V14.01,2013-01-16 02:18:00,
2013-01-15 18:23:00,31.1,25.4,30.50,South,180,0.0,0.0,79,0.00,,---,0.00,VWS V14.01,2013-01-16 02:23:00,
2013-01-15 18:28:00,31.1,25.4,30.50,South,180,0.0,0.0,79,0.00,,---,0.00,VWS V14.01,2013-01-16 02:28:00,
2013-01-15 18:33:00,31.3,25.5,30.50,South,180,0.0,0.0,79,0.00,,---,0.00,VWS V14.01,2013-01-16 02:33:00,
2013-01-15 18:39:00,31.1,25.4,30.50,South,180,0.0,0.0,79,0.00,,---,0.00,VWS V14.01,2013-01-16 02:39:00,
2013-01-15 18:44:00,31.1,25.4,30.50,South,180,0.0,0.0,79,0.00,,---,0.00,VWS V14.01,2013-01-16 02:44:00,
2013-01-15 18:49:00,31.1,25.4,30.50,South,180,0.0,0.0,79,0.00,,---,0.00,VWS V14.01,2013-01-16 02:49:00,
2013-01-15 18:54:00,31.1,25.4,30.50,South,180,0.0,0.0,79,0.00,,---,0.00,VWS V14.01,2013-01-16 02:54:00,
2013-01-15 18:59:00,30.9,25.2,30.50,South,180,0.0,0.0,79,0.00,,---,0.00,VWS V14.01,2013-01-16 02:59:00,
2013-01-15 19:04:00,30.9,25.2,30.50,WSW,248,0.0,0.0,79,0.00,,---,0.00,VWS V14.01,2013-01-16 03:04:00,
2013-01-15 19:09:00,30.9,25.5,30.50,WSW,248,0.0,0.0,80,0.00,,---,0.00,VWS V14.01,2013-01-16 03:09:00,
2013-01-15 19:14:00,30.7,25.3,30.50,WSW,248,0.0,0.0,80,0.00,,---,0.00,VWS V14.01,2013-01-16 03:14:00,
2013-01-15 19:19:00,30.7,25.3,30.50,SW,225,0.0,0.0,80,0.00,,---,0.00,VWS V14.01,2013-01-16 03:19:00,
2013-01-15 19:24:00,30.6,25.1,30.50,SW,225,0.0,0.0,80,0.00,,---,0.00,VWS V14.01,2013-01-16 03:24:00,
2013-01-15 19:29:00,30.6,25.1,30.50,WSW,248,0.0,0.0,80,0.00,,---,0.00,VWS V14.01,2013-01-16 03:29:00,
2013-01-15 19:34:00,30.6,25.1,30.50,WSW,248,0.0,0.0,80,0.00,,---,0.00,VWS V14.01,2013-01-16 03:34:00,
2013-01-15 19:40:00,30.4,25.0,30.50,WNW,292,0.0,0.0,80,0.00,,---,0.00,VWS V14.01,2013-01-16 03:40:00,
2013-01-15 19:45:00,30.2,24.8,30.50,WSW,248,2.0,2.0,80,0.00,,---,0.00,VWS V14.01,2013-01-16 03:45:00,
2013-01-15 19:50:00,29.8,24.4,30.50,WSW,248,0.0,0.0,80,0.00,,---,0.00,VWS V14.01,2013-01-16 03:50:00,
2013-01-15 19:55:00,29.5,24.1,30.50,West,270,0.0,0.0,80,0.00,,---,0.00,VWS V14.01,2013-01-16 03:55:00,
2013-01-15 20:00:00,29.3,23.9,30.50,West,270,0.0,0.0,80,0.00,,---,0.00,VWS V14.01,2013-01-16 04:00:00,
2013-01-15 20:05:00,28.9,23.6,30.50,West,270,0.0,0.0,80,0.00,,---,0.00,VWS V14.01,2013-01-16 04:05:00,
2013-01-15 20:10:00,28.8,23.4,30.50,West,270,1.3,1.3,80,0.00,,---,0.00,VWS V14.01,2013-01-16 04:10:00,
2013-01-15 20:15:00,28.6,23.2,30.50,WSW,248,1.1,1.1,80,0.00,,---,0.00,VWS V14.01,2013-01-16 04:15:00,
2013-01-15 20:20:00,28.4,23.3,30.50,West,270,1.1,1.1,81,0.00,,---,0.00,VWS V14.01,2013-01-16 04:20:00,
2013-01-15 20:25:00,28.0,23.0,30.50,West,270,1.3,1.3,81,0.00,,---,0.00,VWS V14.01,2013-01-16 04:25:00,
2013-01-15 20:30:00,27.9,22.8,30.50,West,270,0.0,0.0,81,0.00,,---,0.00,VWS V14.01,2013-01-16 04:30:00,
2013-01-15 20:36:00,27.9,22.8,30.50,SW,225,1.6,1.6,81,0.00,,---,0.00,VWS V14.01,2013-01-16 04:36:00,
2013-01-15 20:41:00,27.5,22.7,30.50,WSW,248,0.0,0.0,82,0.00,,---,0.00,VWS V14.01,2013-01-16 04:41:00,
2013-01-15 20:46:00,27.0,21.9,30.50,WNW,292,0.0,0.0,81,0.00,,---,0.00,VWS V14.01,2013-01-16 04:46:00,
2013-01-15 20:51:00,26.8,21.7,30.50,WNW,292,0.0,0.0,81,0.00,,---,0.00,VWS V14.01,2013-01-16 04:51:00,
2013-01-15 20:56:00,26.6,21.9,30.50,WSW,248,2.0,2.0,82,0.00,,---,0.00,VWS V14.01,2013-01-16 04:56:00,
2013-01-15 21:00:00,26.2,21.5,30.50,WSW,248,0.0,0.0,82,0.00,,---,0.00,VWS V14.01,2013-01-16 05:00:00,
2013-01-15 21:01:00,26.2,21.5,30.50,WSW,248,0.0,0.0,82,0.00,,---,0.00,VWS V14.01,2013-01-16 05:01:00,
2013-01-15 21:02:00,26.1,21.3,30.50,WSW,248,0.0,0.0,82,0.00,,---,0.00,VWS V14.01,2013-01-16 05:02:00,
2013-01-15 21:07:00,25.3,20.6,30.50,SW,225,0.0,0.0,82,0.00,,---,0.00,VWS V14.01,2013-01-16 05:07:00,
2013-01-15 21:12:00,25.2,20.5,30.50,SW,225,0.0,0.0,82,0.00,,---,0.00,VWS V14.01,2013-01-16 05:12:00,
2013-01-15 21:17:00,25.0,20.6,30.50,SW,225,0.0,0.0,83,0.00,,---,0.00,VWS V14.01,2013-01-16 05:17:00,
2013-01-15 21:22:00,24.4,20.0,30.50,West,270,0.0,0.0,83,0.00,,---,0.00,VWS V14.01,2013-01-16 05:22:00,
2013-01-15 21:27:00,24.6,20.5,30.50,West,270,0.0,0.0,84,0.00,,---,0.00,VWS V14.01,2013-01-16 05:27:00,
2013-01-15 21:33:00,24.6,20.8,30.50,WSW,248,1.1,1.1,85,0.00,,---,0.00,VWS V14.01,2013-01-16 05:33:00,
2013-01-15 21:38:00,24.6,20.8,30.50,WSW,248,2.0,2.0,85,0.00,,---,0.00,VWS V14.01,2013-01-16 05:38:00,
2013-01-15 21:43:00,24.4,20.6,30.50,WSW,248,0.0,0.0,85,0.00,,---,0.00,VWS V14.01,2013-01-16 05:43:00,
2013-01-15 21:48:00,24.3,20.4,30.50,WSW,248,0.0,0.0,85,0.00,,---,0.00,VWS V14.01,2013-01-16 05:48:00,
2013-01-15 21:53:00,23.9,20.1,30.50,SSW,202,0.0,0.0,85,0.00,,---,0.00,VWS V14.01,2013-01-16 05:53:00,
2013-01-15 21:58:00,23.7,20.1,30.50,SSW,202,0.0,0.0,86,0.00,,---,0.00,VWS V14.01,2013-01-16 05:58:00,
2013-01-15 22:03:00,23.5,19.7,30.50,SSW,202,0.0,0.0,85,0.00,,---,0.00,VWS V14.01,2013-01-16 06:03:00,
2013-01-15 22:08:00,23.4,19.5,30.50,SSW,202,0.0,0.0,85,0.00,,---,0.00,VWS V14.01,2013-01-16 06:08:00,
2013-01-15 22:13:00,23.0,19.2,30.50,SSW,202,0.0,0.0,85,0.00,,---,0.00,VWS V14.01,2013-01-16 06:13:00,
2013-01-15 22:19:00,23.0,19.5,30.50,SSW,202,0.0,0.0,86,0.00,,---,0.00,VWS V14.01,2013-01-16 06:19:00,
2013-01-15 22:24:00,22.8,19.3,30.50,SSW,202,0.0,0.0,86,0.00,,---,0.00,VWS V14.01,2013-01-16 06:24:00,
2013-01-15 22:29:00,22.3,18.5,30.50,SSW,202,0.0,0.0,85,0.00,,---,0.00,VWS V14.01,2013-01-16 06:29:00,
2013-01-15 22:34:00,22.3,18.5,30.47,SSW,202,1.3,1.3,85,0.00,,---,0.00,VWS V14.01,2013-01-16 06:34:00,
2013-01-15 22:39:00,22.3,18.7,30.47,SSW,202,1.6,1.6,86,0.00,,---,0.00,VWS V14.01,2013-01-16 06:39:00,
2013-01-15 22:44:00,22.1,18.8,30.47,SSW,202,0.0,0.0,87,0.00,,---,0.00,VWS V14.01,2013-01-16 06:44:00,
2013-01-15 22:49:00,21.9,18.6,30.47,SSW,202,1.1,1.1,87,0.00,,---,0.00,VWS V14.01,2013-01-16 06:49:00,
2013-01-15 22:54:00,21.9,18.6,30.47,SSW,202,0.0,0.0,87,0.00,,---,0.00,VWS V14.01,2013-01-16 06:54:00,
2013-01-15 22:59:00,21.7,18.5,30.47,SSW,202,0.0,0.0,87,0.00,,---,0.00,VWS V14.01,2013-01-16 06:59:00,
2013-01-15 23:05:00,21.7,18.5,30.50,SSW,202,0.0,0.0,87,0.00,,---,0.00,VWS V14.01,2013-01-16 07:05:00,
2013-01-15 23:10:00,21.6,18.3,30.50,SSW,202,0.0,0.0,87,0.00,,---,0.00,VWS V14.01,2013-01-16 07:10:00,
2013-01-15 23:15:00,21.4,18.1,30.50,SSW,202,0.0,0.0,87,0.00,,---,0.00,VWS V14.01,2013-01-16 07:15:00,
2013-01-15 23:20:00,21.2,17.9,30.47,SSW,202,0.0,0.0,87,0.00,,---,0.00,VWS V14.01,2013-01-16 07:20:00,
2013-01-15 23:25:00,21.0,17.8,30.47,SSW,202,0.0,0.0,87,0.00,,---,0.00,VWS V14.01,2013-01-16 07:25:00,
2013-01-15 23:30:00,20.8,17.6,30.47,SSW,202,0.0,0.0,87,0.00,,---,0.00,VWS V14.01,2013-01-16 07:30:00,
2013-01-15 23:35:00,20.8,17.6,30.47,SSW,202,0.0,0.0,87,0.00,,---,0.00,VWS V14.01,2013-01-16 07:35:00,
2013-01-15 23:40:00,20.7,17.4,30.47,SSW,202,2.0,2.0,87,0.00,,---,0.00,VWS V14.01,2013-01-16 07:40:00,
2013-01-15 23:45:00,20.7,17.7,30.47,SSW,202,0.0,0.0,88,0.00,,---,0.00,VWS V14.01,2013-01-16 07:45:00,
2013-01-15 23:50:00,20.8,17.9,30.47,SSW,202,0.0,0.0,88,0.00,,---,0.00,VWS V14.01,2013-01-16 07:50:00,
2013-01-15 23:55:00,21.0,18.0,30.47,SSW,202,1.1,1.1,88,0.00,,---,0.00,VWS V14.01,2013-01-16 07:55:00,